Theta_e
288 288 288 288 288 287 288 288 287 287 287 287 286 286 285 285 284 284 284 284 283 283 283 283 283 283 283 283 283 283 283 283 283 283 283 283 283 283 283 283 282 282
288 288 288 288 288 288 288 288 288 288 287 287 287 287 286 286 285 285 284 284 284 283 283 283 283 283 283 283 283 283 283 283 283 282 282 282 282 282 282 282 282 282
288 288 288 288 288 288 288 288 288 288 287 287 287 287 287 286 286 285 285 284 284 284 283 283 283 283 283 283 283 283 283 283 282 282 282 282 282 281 281 281 281 281
289 289 289 289 289 288 288 288 287 287 287 287 286 286 286 285 285 285 284 284 284 283 283 283 283 283 283 283 283 282 282 282 282 282 282 282 282 281 281 281 281 281
289 289 289 288 288 287 287 287 287 286 286 285 285 284 284 284 284 283 283 283 283 282 282 282 282 282 282 282 282 281 281 281 281 281 281 281 281 281 280 280 280 280
288 288 288 287 287 286 286 286 286 285 284 284 283 282 282 282 282 281 281 281 281 281 281 281 281 281 281 281 280 280 280 280 280 280 280 280 280 280 280 279 279 279
288 288 287 287 286 286 286 285 284 283 282 282 281 281 280 280 280 280 280 280 280 280 280 280 280 280 280 280 280 280 279 279 279 279 279 279 279 278 278 278 278 278
288 287 286 286 285 285 284 283 282 281 281 281 281 280 280 280 280 280 279 279 279 279 279 279 279 279 279 279 279 279 279 279 278 278 278 278 278 278 277 277 277 276
286 286 285 285 284 283 283 282 281 281 281 281 281 280 280 280 280 279 279 279 279 279 279 279 279 279 279 279 279 279 279 279 278 278 278 278 278 277 277 276 276 275
285 285 284 284 283 283 282 282 281 281 281 281 280 280 280 279 279 279 279 279 279 279 279 279 279 279 279 279 279 278 278 278 278 277 277 276 276 276 275 275 274 274
284 283 283 283 283 283 283 282 282 281 281 280 280 280 279 279 279 280 280 280 280 280 279 279 279 279 279 278 278 277 277 276 276 276 275 274 274 273 273 273 273 273
283 283 283 283 283 283 283 282 282 281 281 280 280 280 280 280 280 280 280 280 279 279 279 279 278 278 278 277 277 276 276 276 275 275 274 273 272 272 272 272 272 272
283 284 284 284 284 283 283 282 282 281 281 280 280 280 280 280 280 280 279 279 279 279 278 278 278 277 277 276 276 276 275 275 274 273 272 271 271 271 271 272 272 272
283 284 284 284 284 283 283 283 282 281 280 280 280 279 279 279 279 279 279 279 278 278 277 277 277 276 276 275 275 274 273 272 272 271 271 271 271 271 271 271 271 271
284 284 285 285 284 284 283 282 281 280 280 279 279 279 279 279 278 278 278 278 278 277 277 276 276 275 275 274 273 272 271 271 270 270 271 271 271 271 271 271 271 271
285 285 285 284 284 283 282 281 280 279 279 279 279 278 278 278 278 278 277 277 277 276 276 275 275 275 274 273 272 271 270 270 270 270 271 271 271 271 271 271 271 271
285 285 284 283 282 282 281 280 279 279 278 278 278 278 277 277 277 277 277 276 276 275 275 274 274 274 273 272 271 270 269 270 271 271 271 271 270 271 270 270 270 270
284 284 283 282 281 281 280 279 278 278 278 277 277 277 277 276 276 276 276 275 275 274 274 274 274 273 272 272 270 269 269 271 271 270 270 270 270 270 270 269 269 268
284 283 282 281 280 280 279 278 277 277 277 277 276 276 276 276 275 275 275 274 273 273 273 273 273 273 272 271 269 268 269 270 270 270 270 270 270 269 268 268 268 268
283 282 281 280 279 279 278 277 277 276 276 276 275 275 275 275 274 274 273 273 272 272 272 272 272 272 271 269 268 267 269 270 270 270 270 269 268 268 268 268 268 268
282 281 280 279 279 278 277 276 276 276 275 275 275 274 274 274 273 273 272 272 272 271 271 272 272 271 270 269 267 267 269 270 269 269 268 268 268 267 267 268 268 268
281 280 279 279 278 277 276 276 275 275 274 274 274 274 273 273 273 272 272 271 271 271 271 271 272 271 269 268 267 267 268 269 268 268 268 268 268 268 268 268 268 268
280 280 279 278 277 276 276 275 274 274 274 273 273 273 273 272 272 271 271 270 270 270 270 271 271 270 269 268 267 267 268 268 268 268 268 268 268 268 268 268 268 269
280 279 278 277 276 275 275 274 274 274 273 273 272 272 272 272 271 271 270 270 270 270 269 270 271 270 268 267 267 267 267 268 268 268 268 268 269 269 269 269 269 269
279 278 277 276 275 275 274 274 273 273 273 272 272 272 271 271 271 270 270 270 269 269 269 269 270 270 268 267 267 266 267 268 268 268 268 269 269 269 269 269 270 270
278 277 276 275 275 274 273 273 273 272 272 272 271 271 271 271 270 270 269 269 269 269 269 269 269 268 268 267 266 266 267 268 268 268 269 269 269 269 270 270 270 271
Wind_Speed
23 22 22 22 22 21 20 21 22 22 23 23 23 23 23 23 23 23 23 23 23 23 23 24 23 24 24 24 24 24 24 24 23 23 22 22 22 22 22 21 21 20
21 21 20 20 20 20 20 20 20 21 21 21 21 22 22 22 23 23 23 24 24 25 25 26 26 26 26 26 26 26 26 26 26 26 25 25 25 24 24 23 22 22
18 18 18 18 18 19 19 18 19 18 18 18 18 19 19 20 20 20 20 21 21 22 23 24 25 25 26 26 26 27 27 28 28 28 28 27 27 26 26 25 24 24
16 15 16 16 15 15 15 15 15 15 15 15 16 16 17 17 17 18 18 19 20 21 22 23 24 25 25 26 26 27 27 27 28 28 29 29 28 28 28 27 27 27
12 12 12 11 11 11 11 12 14 14 14 15 16 16 17 17 18 19 20 21 22 23 24 24 25 25 26 26 27 27 27 28 28 28 29 30 29 29 29 28 29 29
10 9 8 8 8 9 11 13 13 13 13 14 15 16 17 17 18 20 21 22 22 23 24 24 25 25 26 27 27 28 28 29 29 29 30 30 30 30 29 29 29 29
7 6 6 7 8 10 12 12 11 11 12 13 14 16 17 18 20 21 22 23 23 24 24 24 25 26 27 28 29 29 29 30 30 30 31 31 31 31 30 30 30 30
5 5 6 7 8 10 10 10 11 12 13 14 16 18 19 20 21 22 23 24 24 25 25 26 27 28 29 30 30 31 31 31 31 31 31 32 32 32 32 31 31 31
4 4 5 6 8 9 11 12 13 14 16 17 19 20 21 22 23 23 24 25 25 26 27 28 29 30 30 31 31 32 32 32 32 32 32 32 33 33 33 33 32 33
2 3 5 7 9 11 13 14 16 17 18 20 21 21 22 23 23 24 25 25 26 27 28 28 29 29 30 30 31 31 31 32 32 31 31 31 31 31 31 31 30 31
3 4 6 9 11 13 14 16 18 19 20 21 22 22 23 23 24 24 25 25 26 27 27 28 28 29 29 30 30 30 30 30 30 31 30 29 29 28 27 26 25 25
4 6 8 10 12 14 16 17 19 19 20 21 22 22 23 23 24 25 25 25 26 26 27 27 28 28 29 29 29 29 30 30 30 31 30 29 29 27 23 21 20 20
5 7 9 11 13 14 16 17 18 19 20 21 22 22 23 24 24 24 25 25 26 26 26 27 27 27 27 28 28 29 29 29 30 30 29 29 27 23 19 17 16 17
5 7 9 11 13 14 16 17 18 19 20 21 22 22 22 23 23 24 24 24 25 25 25 26 26 26 26 27 27 27 27 27 27 27 27 25 22 19 17 17 16 16
5 8 10 12 14 15 16 17 18 19 20 20 21 21 21 22 22 23 23 24 24 25 25 26 26 26 25 25 25 24 24 24 24 23 22 21 20 18 18 17 16 16
6 8 10 12 14 15 16 17 18 18 19 19 20 20 20 21 21 22 23 23 24 25 25 26 26 26 25 23 21 20 20 21 21 20 19 19 20 20 19 19 17 17
6 8 10 12 13 14 16 17 17 18 19 19 19 20 20 20 21 22 22 23 24 25 26 26 26 25 24 23 20 18 18 19 19 19 19 19 19 20 20 20 18 18
7 9 11 12 13 14 16 16 17 18 18 19 19 19 20 21 21 22 22 23 24 25 26 26 26 25 24 23 20 18 17 19 19 19 19 19 18 19 19 19 19 19
8 10 11 12 13 15 16 16 17 17 18 18 19 20 20 21 21 22 23 23 24 25 26 27 26 25 24 22 20 18 18 19 19 19 19 19 18 18 18 18 18 19
9 10 11 12 14 15 16 16 16 17 17 18 19 20 21 21 22 23 23 23 24 25 26 27 26 25 24 22 19 18 18 19 19 18 18 17 17 17 17 17 18 19
9 10 11 13 15 15 16 16 16 17 17 18 20 20 21 22 22 23 24 24 24 24 26 26 26 25 24 22 19 18 19 19 18 17 16 17 17 17 17 18 19 20
9 10 12 14 15 15 16 16 16 16 17 19 20 20 21 22 23 24 24 24 24 24 25 26 25 24 23 22 19 18 19 18 17 16 17 17 18 18 17 18 18 19
9 11 13 14 15 15 16 15 16 16 17 19 20 21 22 23 24 24 24 24 24 23 24 26 26 24 23 21 18 17 19 19 17 18 18 19 20 21 18 17 18 22
10 12 14 14 15 15 15 15 16 16 17 18 20 22 23 23 24 25 25 24 23 23 23 25 26 24 22 20 17 16 18 19 19 19 20 21 22 20 17 18 22 27
12 13 14 14 15 15 15 15 16 17 17 19 20 21 23 24 24 25 25 24 23 22 22 23 25 24 21 20 18 17 19 20 20 21 22 21 21 21 22 25 27 28
12 13 13 14 15 15 15 15 16 17 18 19 20 21 23 24 24 24 26 25 23 22 21 20 22 23 21 20 19 19 20 20 21 22 22 22 25 27 30 29 28 29
Wind_Direction
84 80 76 73 69 62 55 49 43 40 38 35 34 32 30 27 23 20 19 18 17 16 14 13 10 9 8 6 4 3 1 360 359 356 355 354 352 350 347 346 345 343
80 75 70 65 61 54 46 40 35 32 29 27 25 23 21 18 15 12 11 10 9 8 7 6 4 3 2 360 359 357 355 354 353 351 350 349 347 345 344 342 341 340
78 71 64 57 51 44 36 30 26 24 21 18 17 15 13 10 7 6 4 3 2 1 360 359 357 356 354 353 352 350 349 348 347 345 344 344 343 341 340 339 338 337
74 64 55 49 44 38 30 23 21 18 14 12 12 9 7 5 3 1 359 358 357 356 355 354 353 351 350 349 347 346 345 344 343 341 339 339 339 337 337 336 334 333
73 65 58 51 46 38 28 22 19 15 10 8 7 5 3 2 1 360 359 358 357 356 354 353 352 351 349 348 347 346 344 343 342 340 338 336 336 335 334 333 331 329
84 76 65 51 41 29 19 17 15 9 6 6 4 3 2 2 1 0 360 359 357 356 354 352 351 350 349 348 347 346 344 343 341 339 337 335 334 333 332 331 328 325
90 77 59 39 25 19 15 14 12 7 7 7 4 3 2 1 1 0 359 358 356 355 353 352 351 350 349 348 347 345 343 342 341 338 337 334 333 331 330 329 326 322
88 65 45 28 17 15 16 15 11 8 7 5 3 1 360 358 358 357 356 355 354 353 352 352 351 350 349 348 346 345 342 341 340 337 335 333 331 330 329 327 325 322
78 53 37 24 20 18 16 13 8 5 3 0 359 357 356 355 355 354 353 353 352 351 350 349 348 346 346 345 343 341 338 337 335 334 332 330 328 327 326 325 323 320
92 61 40 26 21 16 11 6 2 360 357 355 355 354 353 352 352 351 349 348 346 345 344 343 342 342 341 340 339 338 335 334 332 331 330 328 326 324 323 322 320 317
101 56 35 22 14 9 4 359 356 354 352 351 350 349 348 346 345 344 343 341 341 340 340 339 339 339 340 339 337 337 335 333 332 331 329 328 325 324 322 319 315 312
75 41 24 14 6 1 357 352 349 347 345 344 342 342 341 339 339 338 338 338 338 337 337 337 337 338 339 338 336 335 334 333 332 331 329 328 326 325 322 317 312 309
58 30 15 6 358 353 348 343 341 339 337 337 336 336 335 335 335 335 335 335 335 334 335 335 336 338 338 337 335 335 334 333 331 329 327 326 325 321 318 314 309 307
45 21 6 356 349 343 338 335 333 333 332 332 332 331 331 331 332 332 332 332 331 332 332 333 335 338 339 337 337 336 335 331 327 325 323 321 319 315 313 311 309 306
26 7 354 344 337 333 331 330 329 329 329 328 328 328 328 329 329 329 328 328 329 330 331 333 335 338 340 340 339 336 331 325 322 320 318 314 312 311 309 308 306 305
6 352 341 332 328 327 326 325 325 325 325 325 326 325 326 326 326 327 327 327 328 330 331 333 336 338 340 339 338 333 324 318 314 311 310 309 308 308 308 306 305 303
350 340 330 325 323 323 322 321 322 322 323 323 323 323 324 325 325 325 327 328 329 331 332 333 335 338 338 336 335 332 321 312 308 306 306 305 304 304 305 305 305 303
336 329 324 320 320 321 320 320 320 321 322 321 321 321 322 323 325 325 327 329 330 331 332 332 334 337 336 334 334 329 317 308 305 304 302 301 301 301 301 303 303 303
326 323 319 318 320 320 319 319 319 320 321 320 320 321 322 323 325 326 327 329 331 332 331 331 334 336 334 334 333 324 312 307 303 300 298 298 298 298 298 299 300 300
319 317 316 317 318 317 316 317 318 319 320 320 319 321 322 323 325 326 327 330 331 331 330 329 332 334 333 333 329 318 310 307 302 298 295 294 293 295 296 295 296 297
311 312 315 317 315 314 314 316 317 318 319 319 319 320 322 323 325 325 325 328 331 330 328 328 331 333 332 331 327 316 310 307 301 296 292 290 292 293 292 292 294 292
308 312 314 313 311 311 312 313 315 316 317 318 318 319 321 322 322 323 323 326 329 330 327 326 330 332 331 331 327 317 309 306 301 295 291 288 290 292 292 291 289 286
307 309 309 308 307 307 308 310 312 314 315 317 317 317 319 320 320 320 322 324 327 329 327 326 328 331 331 330 328 318 311 307 300 295 291 288 292 295 294 288 285 289
303 303 302 302 303 303 304 307 310 312 314 315 315 316 317 318 318 318 319 323 325 328 328 325 325 328 329 329 329 322 311 304 300 297 293 291 294 297 293 285 287 295
294 295 296 297 298 298 300 304 308 310 312 313 313 314 314 314 316 316 317 322 325 326 328 325 322 325 329 331 332 323 309 304 301 298 295 294 297 297 294 290 289 295
288 290 292 293 293 294 296 302 306 307 310 311 310 311 311 311 314 316 317 321 324 326 327 326 325 326 330 336 335 320 308 305 302 298 297 296 297 295 293 293 294 297